Location: Township of Marena
(38.1747°N, 99.6798°W)
Time: 03:27:33
(UTC+00:00)

Cosmos 1980 Rocket - Pass Details

Date: 26 October 2020
Orbit: 831 x 848 km, 71.0° (Epoch: 24 November)

Event Time Altitude Azimuth Distance (km) Brightness Sun altitude
Rises 01:17:05 0° 171° (S) 3,379 5.3 -18.3°
Reaches altitude 10° 01:19:50 10° 160° (SSE) 2,446 4.4 -18.9°
Enters shadow 01:22:30 22° 136° (SE) 1,733 3.4 -19.4°
